Orbital Elements at Epoch 2459200.5 (2020-Dec-17.0) TDB
Reference: JPL 21 (heliocentric ecliptic J2000)
Element | Value | Uncertainty (1-sigma) | Units |
e | .1832776525524323 | 8.0793e-08 | |
a | 2.728378455549476 | 1.7919e-08 | au |
q | 2.228327656941737 | 2.2033e-07 | au |
i | 7.201989225167111 | 7.3998e-06 | deg |
node | 347.1173004735737 | 4.2472e-05 | deg |
peri | 194.1747888442084 | 4.5182e-05 | deg |
M | 13.8019853116842 | 1.5363e-05 | deg |
tp | 2459137.390548702806 (2020-Oct-14.89054870) | 6.9944e-05 | TDB |
period | 1646.096699418773 4.51 | 1.6216e-05 4.44e-08 | d yr |
n | .218699180994114 | 2.1544e-09 | deg/d |
Q | 3.228429254157215 | 2.1203e-08 | au |
|
| | Orbit Determination Parameters
Additional Information
|